Wind_Speed
20 19 18 19 20 20 19 20 20 21 21 23 22 20 19 22 28 28 30 27 16 9 17 10 22 22 19 17 19 12 3 6 7 7 3 4 4 4 7 18 12 11 11 11 35
20 20 21 21 19 19 22 23 24 25 22 22 22 21 23 22 26 36 37 30 26 19 17 19 20 22 13 13 13 8 9 9 5 4 1 5 2 7 7 10 4 8 9 26 38
19 19 21 24 23 22 23 24 25 23 23 22 22 21 20 21 27 31 3 1 11 21 21 19 20 20 12 14 11 10 13 7 4 4 7 3 4 3 7 5 14 24 29 39 41
20 22 21 22 22 24 25 23 26 25 24 22 22 21 18 16 9 4 12 2 1 16 24 22 21 14 8 12 15 7 20 14 10 3 0 3 11 6 13 5 24 30 33 41 42
21 24 25 23 24 25 25 26 26 25 24 24 22 19 20 16 28 13 15 18 3 4 29 28 25 23 19 18 12 12 3 27 13 12 10 11 6 6 9 6 17 29 36 39 39
22 24 23 24 25 26 26 27 27 27 26 24 23 20 22 26 25 28 33 30 24 16 28 31 13 23 11 8 17 11 17 9 23 14 10 5 5 3 1 7 24 34 37 37 39
24 25 25 27 26 27 27 28 28 28 28 25 22 21 26 30 23 19 16 22 20 20 18 26 28 16 10 12 19 10 9 13 8 9 6 5 7 7 5 16 28 33 36 33 38
23 24 25 27 26 27 29 30 30 26 25 26 22 22 25 18 26 29 26 27 28 22 23 23 22 28 15 7 2 13 4 6 14 10 7 8 14 6 12 20 23 27 28 36 37
24 24 26 28 27 28 30 30 29 24 20 13 13 15 14 16 20 16 17 29 29 19 23 22 21 18 13 9 6 7 10 15 1 16 6 13 9 9 18 23 20 27 30 33 35
24 25 25 27 28 28 31 26 22 11 9 8 1 3 15 14 10 5 5 10 11 15 15 14 14 9 11 14 16 9 13 11 15 7 16 12 6 2 19 22 22 27 29 32 33
23 25 25 28 29 29 24 24 16 7 25 11 19 16 24 18 17 19 16 11 10 9 12 20 11 19 27 26 21 13 12 5 12 7 9 16 13 7 10 16 15 23 28 33 34
24 26 27 28 27 22 17 8 16 16 16 24 20 20 16 17 14 34 18 5 4 12 11 7 21 30 15 18 21 20 13 14 2 9 9 9 13 8 9 8 23 27 27 31 35
25 26 25 27 24 14 13 11 19 19 5 14 8 7 5 7 9 17 13 20 9 11 12 19 12 13 17 17 22 24 15 15 12 5 4 5 3 6 8 10 18 26 33 35 40
24 24 23 22 11 18 8 19 19 13 3 6 4 4 6 7 6 8 14 12 6 10 12 14 15 14 19 23 18 17 17 8 12 12 8 5 5 10 15 7 8 20 28 33 38
21 19 18 13 15 15 18 21 14 3 4 7 5 7 28 6 14 6 16 10 10 5 7 14 8 15 14 26 20 6 15 12 11 4 5 2 2 5 3 16 17 15 27 31 37
19 17 14 12 11 16 22 17 2 6 4 7 8 17 12 8 3 4 6 4 3 3 10 9 8 7 12 9 15 8 12 8 3 4 7 8 6 4 6 11 7 7 24 35 34
19 15 10 10 14 20 17 8 5 5 5 8 14 17 16 5 5 4 2 3 4 5 8 9 10 3 17 12 9 8 10 7 5 5 3 8 5 8 5 7 8 17 26 35 39
16 12 8 8 14 15 16 5 7 4 6 7 10 18 5 6 3 6 4 4 6 1 3 9 10 9 5 8 5 6 6 2 4 5 4 3 7 6 8 10 15 15 22 31 32
16 12 6 11 15 12 6 5 5 3 5 8 16 4 4 3 4 6 2 4 4 5 4 2 9 3 6 5 10 7 4 2 6 2 4 4 5 7 7 7 6 13 16 22 24
18 10 6 16 12 8 5 2 3 4 5 3 3 4 6 8 9 9 2 2 4 7 5 3 2 2 3 4 3 6 7 3 3 3 2 2 3 5 3 3 2 5 13 23 21
12 5 9 13 7 6 3 5 5 11 10 3 3 5 5 5 13 7 9 3 7 4 3 2 1 2 5 1 7 2 4 3 4 3 4 4 4 4 4 4 5 8 11 19 24
7 2 12 11 6 1 1 3 7 6 8 4 3 4 4 13 5 4 7 4 12 2 3 3 1 4 4 1 2 2 5 5 4 2 1 2 3 0 3 6 6 9 7 8 19
9 5 8 9 3 3 5 5 4 5 6 5 4 6 7 5 5 3 7 10 15 4 1 4 2 3 4 3 4 4 2 5 4 3 2 4 2 2 4 5 8 6 3 2 12
6 3 4 5 3 2 4 4 6 11 5 5 4 5 7 4 3 5 5 6 14 7 8 3 2 3 2 5 5 4 1 3 5 3 6 4 3 2 6 5 4 8 7 4 14
6 2 2 4 4 2 2 1 6 7 5 7 3 8 11 4 6 5 5 8 3 13 5 3 2 3 2 3 4 4 5 3 6 6 7 4 5 3 1 2 3 6 6 7 16
5 4 4 4 6 4 5 3 5 6 3 5 5 13 11 5 4 11 13 7 3 7 5 3 2 2 4 4 4 5 8 3 2 4 4 5 5 6 3 3 3 6 4 7 13
6 5 3 4 4 2 1 5 7 4 7 9 11 12 6 6 18 24 20 17 13 6 4 3 2 3 1 2 6 3 12 10 3 3 7 4 7 4 2 2 2 2 1 5 11
Wind_Direction
332 337 340 334 335 332 330 322 313 308 307 299 288 292 308 301 278 270 266 267 275 262 235 221 197 195 201 204 194 189 166 213 212 185 231 150 192 186 173 153 163 198 182 192 168
341 336 334 327 316 316 314 310 310 309 310 310 307 299 282 303 299 278 266 273 272 245 216 206 204 197 210 207 204 187 211 207 194 176 208 315 233 184 148 141 157 162 162 164 166
338 334 327 327 326 323 316 314 314 314 313 310 304 305 300 290 305 292 274 309 290 230 213 217 202 205 222 202 206 209 222 210 227 220 23 293 326 297 150 231 179 176 157 167 169
344 331 330 325 321 315 317 316 314 312 310 305 301 303 296 286 263 120 143 38 317 222 208 207 202 198 218 201 202 235 228 210 226 188 279 352 329 328 181 231 204 188 173 167 173
332 323 322 321 323 319 316 313 311 307 301 299 298 299 295 269 245 186 253 273 288 248 202 206 201 198 215 205 202 221 274 217 218 257 279 301 281 273 279 279 186 170 169 173 176
328 327 328 326 326 323 321 317 310 304 298 293 292 291 280 267 269 260 264 274 274 292 210 210 216 213 238 223 208 208 223 210 217 232 267 263 290 203 316 192 167 170 175 179 183
326 325 323 324 324 323 323 317 312 306 299 292 287 281 268 255 264 271 264 266 269 253 270 225 217 192 206 229 236 233 203 208 211 194 225 256 276 224 224 170 170 175 179 181 188
329 328 328 329 326 325 324 321 317 317 306 290 279 270 266 274 279 273 267 264 260 263 251 242 235 236 236 266 240 213 234 180 217 194 206 157 256 213 187 177 178 180 183 187 195
329 326 327 328 327 330 327 324 325 316 306 309 270 248 275 275 275 282 276 267 264 251 243 247 235 231 221 221 220 184 218 205 296 203 159 177 228 212 190 185 183 191 188 195 197
330 329 325 333 332 332 327 328 337 337 335 348 300 168 247 250 270 256 311 337 265 250 255 235 218 209 206 211 215 202 201 203 201 188 195 202 220 189 183 186 189 195 198 196 198
325 330 332 331 329 331 330 343 0 338 315 275 264 261 270 285 283 284 251 292 294 210 212 198 212 210 208 211 212 217 214 162 210 185 158 214 209 204 174 190 197 195 196 202 199
335 330 330 329 331 331 335 22 1 327 306 310 292 277 283 263 269 264 249 246 244 231 203 240 213 218 219 210 211 214 211 199 134 179 182 187 213 205 202 207 201 206 201 200 204
327 326 329 326 332 343 343 354 342 341 286 305 312 270 302 226 236 279 206 211 212 237 220 220 229 209 211 215 220 220 213 187 185 132 49 113 269 206 236 209 210 217 217 205 207
328 325 326 327 338 338 346 338 338 338 10 283 305 306 330 265 263 273 227 181 185 230 196 245 250 252 206 216 212 201 207 201 184 159 189 181 245 221 219 213 207 207 211 210 208
333 336 329 335 327 335 335 335 332 347 13 305 302 314 324 235 298 331 202 187 189 179 194 210 222 214 233 213 209 202 180 194 188 169 127 178 125 253 204 216 212 213 205 213 214
340 337 329 337 328 334 331 332 339 44 276 313 319 320 324 302 237 281 164 138 88 189 273 256 303 199 207 233 201 133 167 174 78 130 211 184 154 253 197 217 210 195 210 215 215
343 344 330 336 329 331 333 334 35 97 329 325 322 325 317 303 312 208 119 149 199 178 221 204 223 276 179 230 214 166 143 164 197 181 185 158 149 233 217 220 199 201 210 217 220
340 339 324 316 330 336 337 48 59 253 273 291 311 310 290 4 294 328 179 185 222 231 11 170 202 179 177 202 172 186 173 142 153 152 144 111 216 240 227 220 222 229 225 225 221
336 337 304 322 333 332 343 49 205 241 324 318 315 307 309 326 334 321 229 212 170 178 184 260 218 129 161 152 153 149 197 139 115 78 91 194 286 291 250 271 220 234 238 240 239
337 338 327 342 341 344 67 290 249 227 311 318 292 4 313 331 338 336 333 285 204 194 176 227 114 132 129 122 64 155 157 97 39 117 100 352 285 228 227 234 337 273 234 226 225
341 327 348 348 3 35 100 244 286 287 309 241 275 293 279 320 317 315 357 39 352 163 113 164 105 186 119 211 149 99 127 55 104 90 138 142 255 223 280 285 269 283 288 235 219
4 16 355 2 43 88 342 267 293 288 330 294 264 248 301 318 301 308 333 307 351 12 189 196 167 161 99 125 76 96 144 132 133 237 86 128 297 27 293 288 304 292 283 244 219
348 313 4 8 79 329 315 302 277 310 315 345 297 354 316 306 324 331 321 312 358 5 198 188 6 90 93 41 33 99 126 111 108 110 197 107 253 79 7 47 39 52 2 340 196
352 1 339 33 64 129 320 307 322 313 286 343 277 336 330 314 301 306 305 325 322 345 357 143 72 74 151 196 134 114 41 148 119 112 156 206 183 355 7 36 43 42 40 85 168
10 314 333 318 331 358 301 277 316 344 309 322 320 358 339 303 317 343 336 315 339 1 27 35 69 96 12 72 110 130 131 172 145 162 172 216 209 214 62 27 24 50 51 124 162
13 357 332 293 312 337 355 302 308 322 262 302 338 324 318 290 345 325 322 329 344 339 342 333 64 12 39 89 154 119 143 279 138 138 124 159 245 219 93 113 44 66 71 143 168
347 314 314 301 344 41 297 324 294 324 288 272 319 320 326 350 313 287 271 268 275 302 327 352 63 61 3 56 85 66 182 190 159 184 150 202 215 155 104 210 332 98 98 183 180
Height
1495 1492 1489 1487 1484 1481 1478 1476 1474 1472 1469 1467 1465 1463 1461 1458 1455 1453 1449 1449 1452 1452 1453 1454 1455 1457 1460 1460 1462 1464 1470 1468 1460 1460 1457 1453 1456 1455 1456 1458 1464 1467 1466 1466 1475
1493 1491 1488 1486 1482 1479 1476 1473 1470 1468 1466 1463 1462 1459 1458 1455 1450 1440 1442 1444 1446 1449 1450 1450 1452 1456 1456 1456 1457 1457 1457 1455 1452 1452 1453 1454 1455 1454 1456 1457 1462 1464 1465 1467 1473
1492 1490 1487 1483 1480 1476 1473 1469 1466 1464 1462 1460 1458 1456 1454 1452 1446 1431 1434 1440 1441 1442 1446 1449 1450 1454 1453 1452 1451 1450 1446 1449 1449 1451 1452 1454 1453 1454 1454 1457 1452 1456 1461 1467 1472
1491 1487 1484 1480 1477 1473 1469 1466 1463 1460 1458 1456 1455 1453 1451 1450 1449 1432 1435 1435 1436 1437 1441 1444 1448 1451 1447 1444 1446 1448 1446 1447 1450 1451 1451 1455 1455 1453 1452 1451 1449 1451 1455 1462 1469
1489 1485 1481 1477 1474 1470 1466 1462 1459 1456 1453 1451 1450 1450 1448 1442 1433 1433 1431 1431 1432 1433 1436 1439 1441 1442 1442 1439 1443 1444 1443 1447 1449 1448 1451 1453 1454 1454 1452 1451 1450 1455 1459 1462 1468
1486 1483 1478 1474 1470 1466 1462 1458 1453 1450 1447 1445 1445 1446 1443 1433 1430 1430 1429 1429 1432 1432 1432 1436 1437 1437 1438 1437 1440 1437 1443 1443 1446 1449 1452 1453 1453 1453 1450 1451 1451 1452 1459 1463 1466
1483 1479 1476 1472 1467 1463 1458 1453 1447 1443 1439 1438 1439 1440 1433 1426 1426 1426 1426 1426 1428 1431 1429 1433 1434 1436 1435 1436 1437 1437 1440 1443 1440 1446 1450 1451 1453 1451 1449 1451 1452 1455 1458 1463 1466
1480 1477 1472 1468 1463 1459 1453 1448 1441 1436 1432 1430 1431 1432 1423 1422 1422 1421 1421 1420 1424 1427 1429 1428 1432 1434 1434 1433 1432 1437 1439 1444 1437 1442 1444 1452 1451 1447 1448 1451 1455 1457 1460 1463 1464
1478 1474 1469 1464 1460 1455 1449 1443 1437 1431 1426 1423 1424 1427 1421 1419 1416 1413 1415 1415 1418 1421 1424 1427 1430 1430 1432 1431 1435 1432 1435 1436 1437 1434 1441 1447 1449 1444 1446 1448 1452 1455 1457 1462 1465
1474 1471 1466 1461 1456 1451 1445 1440 1434 1428 1425 1423 1422 1427 1418 1414 1414 1413 1414 1414 1414 1416 1421 1423 1424 1423 1425 1428 1421 1425 1430 1431 1435 1433 1435 1440 1442 1438 1441 1445 1448 1452 1456 1460 1463
1471 1467 1463 1458 1453 1448 1442 1437 1435 1431 1424 1425 1422 1419 1412 1414 1413 1411 1411 1411 1413 1414 1413 1414 1417 1411 1405 1406 1409 1418 1423 1426 1425 1427 1433 1435 1438 1438 1440 1444 1446 1449 1452 1456 1460
1468 1464 1460 1455 1451 1446 1443 1441 1441 1440 1422 1416 1412 1412 1407 1406 1407 1398 1408 1411 1411 1408 1410 1413 1404 1391 1408 1413 1414 1416 1416 1422 1423 1423 1429 1432 1435 1437 1437 1437 1439 1444 1448 1451 1457
1464 1460 1457 1452 1448 1446 1442 1442 1439 1436 1431 1413 1411 1408 1406 1406 1400 1393 1398 1400 1406 1406 1406 1403 1391 1404 1407 1407 1411 1415 1413 1415 1416 1424 1430 1432 1439 1437 1431 1434 1435 1438 1441 1446 1450
1462 1457 1453 1450 1448 1444 1441 1439 1436 1434 1437 1420 1410 1407 1406 1403 1398 1391 1391 1397 1402 1400 1406 1404 1398 1401 1401 1402 1404 1405 1420 1415 1413 1421 1434 1431 1442 1430 1426 1431 1432 1432 1435 1439 1444
1457 1453 1450 1447 1446 1444 1441 1436 1434 1433 1471 1416 1411 1407 1405 1403 1396 1387 1388 1391 1394 1395 1398 1390 1392 1400 1399 1389 1400 1402 1408 1417 1418 1423 1428 1436 1443 1427 1427 1424 1424 1425 1428 1433 1438
1456 1452 1449 1448 1446 1443 1438 1434 1433 1450 1469 1421 1413 1408 1402 1395 1394 1392 1390 1392 1395 1396 1398 1396 1390 1387 1397 1396 1395 1402 1407 1416 1420 1429 1428 1428 1431 1428 1424 1412 1416 1419 1422 1427 1433
1456 1452 1449 1447 1445 1440 1436 1434 1449 1461 1429 1422 1414 1406 1402 1396 1391 1390 1388 1390 1392 1395 1393 1390 1391 1388 1387 1398 1399 1398 1406 1415 1418 1415 1416 1426 1432 1413 1408 1409 1406 1409 1414 1419 1425
1455 1451 1448 1447 1444 1440 1436 1438 1465 1443 1433 1423 1417 1407 1402 1395 1390 1389 1388 1389 1388 1386 1385 1381 1397 1387 1382 1391 1391 1400 1403 1397 1399 1412 1428 1428 1424 1409 1400 1400 1402 1404 1407 1412 1418
1453 1450 1449 1447 1443 1440 1437 1460 1457 1440 1431 1427 1416 1410 1406 1396 1398 1392 1385 1381 1382 1386 1386 1377 1376 1378 1378 1381 1390 1398 1400 1397 1409 1420 1421 1429 1418 1403 1398 1398 1400 1401 1406 1408 1409
1453 1450 1448 1446 1442 1440 1443 1451 1444 1436 1432 1429 1426 1418 1413 1405 1401 1393 1386 1382 1378 1381 1382 1386 1376 1376 1379 1381 1386 1388 1396 1399 1411 1419 1416 1422 1419 1410 1396 1396 1398 1401 1401 1401 1403
1451 1449 1449 1445 1443 1442 1459 1458 1442 1433 1432 1429 1428 1421 1416 1412 1401 1395 1388 1384 1382 1380 1381 1383 1383 1382 1380 1387 1387 1392 1397 1407 1406 1420 1420 1426 1416 1405 1400 1400 1402 1400 1399 1398 1399
1452 1454 1450 1445 1447 1452 1458 1448 1442 1434 1430 1426 1423 1421 1416 1410 1407 1401 1393 1386 1383 1382 1379 1380 1384 1373 1388 1388 1389 1388 1394 1402 1413 1428 1445 1431 1413 1401 1402 1400 1398 1396 1395 1395 1396
1456 1453 1451 1447 1460 1460 1450 1447 1443 1436 1432 1429 1426 1421 1418 1413 1412 1401 1396 1388 1386 1384 1379 1380 1382 1379 1389 1391 1391 1391 1392 1405 1409 1412 1415 1418 1412 1401 1401 1400 1398 1397 1396 1394 1395
1459 1460 1453 1451 1451 1454 1452 1449 1446 1437 1432 1429 1427 1422 1420 1416 1410 1407 1400 1393 1388 1385 1379 1379 1387 1387 1393 1393 1398 1403 1408 1397 1401 1420 1423 1415 1403 1402 1402 1402 1400 1398 1397 1397 1399
1461 1462 1461 1460 1454 1454 1452 1451 1447 1442 1434 1429 1426 1425 1424 1419 1416 1408 1402 1397 1390 1388 1383 1386 1388 1387 1385 1384 1386 1397 1404 1409 1405 1406 1407 1405 1406 1403 1402 1401 1400 1399 1399 1399 1402
1465 1464 1461 1459 1455 1452 1453 1455 1449 1443 1440 1432 1431 1426 1423 1419 1416 1414 1410 1402 1397 1392 1391 1391 1391 1385 1390 1388 1386 1393 1398 1406 1402 1404 1405 1406 1407 1400 1401 1401 1400 1400 1401 1401 1404
1465 1464 1463 1460 1458 1457 1455 1453 1450 1446 1437 1434 1430 1427 1421 1418 1417 1411 1409 1407 1404 1400 1396 1394 1394 1400 1404 1390 1390 1401 1393 1398 1401 1401 1402 1409 1401 1398 1400 1401 1402 1402 1402 1404 1405